COSMOS 397 DEB, 21723

Orbit data source: Space-Track

COSMOS 397 DEB, 21723 is space debris in LEO originally from a launch on Thu, 25 Feb 1971 UTC launched from the Tyuratam Missile And Space Complex (TTMTR). Debris objects in space refer to the collection of defunct objects orbiting the Earth. Examples of debris include non-operational satellites, rocket bodies, and fragments generated from explosions, collisions, or faulty payload assembly.

Loading next visibility...
Identifier
21723, 1971-015DW
Orbit
LEO
Country
Flag of CISCIS
Related business
Manufacturer
Unknown
Mission
Spacecraft
Bus & Motor
Unknown
Mass
Unknown
Launch date (UTC)
1971-02-25 (55 years ago)
Launch vehicle
Unknown
Launch site
Tyuratam Missile And Space Complex (TTMTR)
Object type
Payload
Rocket body
Debris
Shape & HBR
Unknown shape, 0.1 m
Radar Cross Section
Small (<0.1 m²)

Expand to show TLE details & history
Last TLE update: 7 hours ago

TLE from 7 hours ago
0 COSMOS 397 DEB
1 21723U 71015DW  25349.90249788  .00014049  00000-0  12495-2 0  9990
2 21723  65.6659 217.2332 0214344 164.2421 196.5507 14.80305894744383
Epoch: 2025-12-15T21:39Z
TLE epoch observation values (Epoch: 2025-12-15T21:39:35.816Z)
Latitude
-0.00007°
Longitude
167.53954°
Altitude
774.66 km
Speed
7.39 km/s
True Right ascension
14h 28m 55s
True Declination
0° 00' 00"
Sunlit
Object was in daylight at epoch
Visualization orbit readout
Latitude
Unknown
Longitude
Unknown
Altitude
Unknown
Speed
Unknown
Apparent Right ascension
Unknown
Apparent Declination
Unknown
Sunlit
N/A
Visualization observer readout
Local Sidereal Time
03:06:49
Azimuth
Unknown
Elevation
Unknown
Doppler factor
Unknown
Orbital elements
Apogee altitude
776.967 km
Perigee altitude
476.673 km
Semi-major axis
7,004.957 km
Eccentricity
0.02143
Inclination
65.6659°
RAAN
217.2332°
Arg. of periapsis
164.2421°
True anomaly
195.86857°
Mean anomaly
196.5507°
Eccentric anomaly
196.20791°
Mean motion
3.70199 °/min
Orbital period
97.25 mins
BSTAR
0.0012495
Loading maneuver chart data...
Computing Atmospheric mass density...

Documentation

Showing up to 5 results
|